Location: Brachbach
(49.1847°N, 9.7240°E)
Time: 13:00:26
(UTC+00:00)

Nimbus 7 Rocket - Pass Details

Date: 11 August 2024
Orbit: 921 x 965 km, 99.4° (Epoch: 14 September)

Event Time Altitude Azimuth Distance (km) Brightness Sun altitude
Rises 22:44:37 0° 28° (NNE) 3,591 8.2 -25.3°
Reaches altitude 10° 22:47:57 10° 47° (NE) 2,636 7.1 -25.4°
Maximum altitude 22:51:49 18° 88° (E) 2,112 6.2 -25.5°
Enters shadow 22:52:30 18° 97° (E) 2,128 6.1 -25.5°
